User: anonymous   Login
Location: Huesca
(42.1318°N, 0.4078°W)
Time: 05:06:21
(UTC+02:00)
Language:

Tiangong - Orbit

View from above orbital plane
View from above orbital plane
View from above satellite
View from above satellite

Ground track
Ground track

The orbit data is extracted from the following two-line orbital elements,

1 48274U 21035A   24200.15200652  .00028183  00000-0  29164-3 0  9992
2 48274  41.4677 254.0111 0001888  72.4405 287.6641 15.64080795183941
Epoch (UTC): 18 July 2024 03:38:53
Eccentricity: 0.0001888
inclination: 41.4677°
perigee height: 374 km
apogee height: 377 km
right ascension of ascending node: 254.0111°
argument of perigee: 72.4405°
revolutions per day: 15.64080795
mean anomaly at epoch: 287.6641°
orbit number at epoch: 18394

The dashed part of the orbit path shows where the satellite is in the earth's shadow,  

DLR